IRIDIUM 150

Last updated on Sun Jun 21 2026 00:03:14 GMT+0000 (Coordinated Universal Time)

1 43257U 18030J 26171.35749331 .00000039 00000+0 67940-5 0 9997 2 43257 86.3962 289.1398 0002153 94.2809 265.8633 14.34217757430618
UTC large
Height (km)
Speed (km/s)
/
Latitude / Longitude
Inclination (degrees)
Orbital Period (minutes)
Azimuth
Elevation
Range (km)
Doppler Factor

Next 0 passes for location: London (51.5072 / 0.1276)

No passes found over London.
IRIDIUM 150